FW8799 Weather Reports


Display with metric or nautical units.
time (UTC)temp
F
wind
direction
speed
MPH
gust
MPH
rain 1hr
in
rain 24hr
in
rain mn
in
humidity
%
barometer
mb
20260507024600 59 215 2.0 3.0 0.00 0.00 0.00 24 1020.1
20260507023104 60 0 0.0 1.0 0.00 0.00 0.00 22 1019.9
20260507021608 63 0 0.0 1.0 0.00 0.00 0.00 20 1020.0
20260507020109 63 216 1.0 4.0 0.00 0.00 0.00 20 1019.9
20260507014600 64 217 3.0 7.0 0.00 0.00 0.00 19 1019.9
20260507013103 64 198 3.0 9.0 0.00 0.00 0.00 19 1019.8
20260507011559 65 205 5.0 12.0 0.00 0.00 0.00 19 1019.7
20260507010058 65 174 6.0 12.0 0.00 0.00 0.00 18 1019.8
20260507004601 66 146 9.0 16.0 0.00 0.00 0.00 18 1020.0
20260507003100 65 133 10.0 15.0 0.00 0.00 0.00 18 1020.1
20260507001558 66 160 11.0 18.0 0.00 0.00 0.00 18 1019.9
20260507000058 66 175 10.0 16.0 0.00 0.00 0.00 20 1019.8
20260506234600 66 173 6.0 18.0 0.00 0.00 0.00 20 1019.8
20260506233104 66 202 8.0 16.0 0.00 0.00 0.00 20 1019.7
20260506231600 66 143 7.0 17.0 0.00 0.00 0.00 20 1019.7
20260506230058 66 136 12.0 20.0 0.00 0.00 0.00 20 1019.8
20260506224609 66 150 7.0 16.0 0.00 0.00 0.00 21 1019.8
20260506223112 65 141 9.0 20.0 0.00 0.00 0.00 20 1019.8
20260506221607 65 195 12.0 21.0 0.00 0.00 0.00 21 1019.9
20260506220105 65 153 8.0 20.0 0.00 0.00 0.00 20 1020.0
20260506214615 65 145 10.0 23.0 0.00 0.00 0.00 22 1020.1
20260506213107 65 174 11.0 22.0 0.00 0.00 0.00 22 1020.2
20260506211611 64 160 15.0 21.0 0.00 0.00 0.00 22 1020.3
20260506210108 64 124 12.0 25.0 0.00 0.00 0.00 23 1020.2
20260506204633 64 162 13.0 23.0 0.00 0.00 0.00 23 1020.2
20260506203100 63 160 16.0 23.0 0.00 0.00 0.00 22 1020.3
20260506201600 64 191 12.0 27.0 0.00 0.00 0.00 22 1020.1
20260506200101 63 150 18.0 29.0 0.00 0.00 0.00 23 1020.0
20260506194607 63 205 14.0 23.0 0.00 0.00 0.00 24 1020.0
20260506193059 63 147 16.0 29.0 0.00 0.00 0.00 23 1020.0
20260506191559 63 159 17.0 30.0 0.00 0.00 0.00 23 1019.9
20260506190100 63 143 19.0 31.0 0.00 0.00 0.00 24 1019.8
20260506184600 62 165 21.0 28.0 0.00 0.00 0.00 23 1019.9
20260506183109 62 150 12.0 23.0 0.00 0.00 0.00 26 1019.9
20260506181602 61 156 12.0 22.0 0.00 0.00 0.00 26 1020.0
20260506180058 59 162 12.0 21.0 0.00 0.00 0.00 32 1020.1
20260506174559 58 190 11.0 20.0 0.00 0.00 0.00 33 1020.0
20260506173100 58 158 11.0 21.0 0.00 0.00 0.00 32 1019.9
20260506171604 57 156 12.0 18.0 0.00 0.00 0.00 32 1019.8
20260506170107 57 153 11.0 21.0 0.00 0.00 0.00 33 1019.5
20260506164603 58 148 14.0 22.0 0.00 0.00 0.00 34 1019.2
20260506163106 58 153 15.0 22.0 0.00 0.00 0.00 33 1019.1
20260506161607 57 169 15.0 20.0 0.00 0.00 0.00 35 1019.0
20260506160058 55 162 12.0 16.0 0.00 0.00 0.00 43 1018.8
20260506154613 56 186 8.0 14.0 0.00 0.00 0.00 53 1018.8
20260506153058 56 184 9.0 14.0 0.00 0.00 0.00 59 1018.6
20260506151558 54 141 8.0 13.0 0.00 0.00 0.00 66 1018.6
20260506150059 53 159 8.0 14.0 0.00 0.00 0.00 70 1018.2
20260506144604 53 133 7.0 13.0 0.00 0.00 0.00 72 1018.1
20260506143059 53 167 9.0 14.0 0.00 0.00 0.00 74 1018.0
20260506141604 52 193 6.0 12.0 0.00 0.00 0.00 79 1017.9
20260506140122 50 188 6.0 11.0 0.00 0.00 0.00 81 1017.6
20260506131558 46 161 1.0 2.0 0.00 0.00 0.00 87 1016.7
20260506130100 45 161 0.0 3.0 0.00 0.00 0.00 87 1016.5
20260506124601 45 178 2.0 3.0 0.00 0.00 0.00 87 1016.0
20260506123101 45 143 3.0 4.0 0.00 0.00 0.00 86 1015.4
20260506121558 45 145 3.0 4.0 0.00 0.00 0.00 86 1015.2
20260506120058 44 146 2.0 3.0 0.00 0.00 0.00 85 1014.9
20260506114604 44 134 0.0 1.0 0.00 0.00 0.00 84 1014.7
20260506113102 45 0 0.0 1.0 0.00 0.00 0.00 85 1014.6
20260506111607 45 0 0.0 1.0 0.00 0.00 0.00 84 1014.4
20260506110058 45 0 0.0 1.0 0.00 0.00 0.00 84 1014.1
20260506104601 46 0 0.0 5.0 0.00 0.00 0.00 83 1013.8
20260506103102 47 260 1.0 2.0 0.00 0.00 0.00 83 1013.6
20260506101559 47 0 0.0 2.0 0.00 0.00 0.00 83 1013.5
20260506094559 48 297 3.0 4.0 0.00 0.00 0.00 82 1012.9
20260506093107 49 33 2.0 3.0 0.00 0.00 0.00 80 1013.2
20260506091601 50 134 0.0 4.0 0.00 0.00 0.00 79 1013.2
20260506090059 50 159 3.0 6.0 0.00 0.00 0.00 78 1013.6
20260506084603 51 147 5.0 10.0 0.00 0.00 0.00 77 1013.4
20260506083101 51 163 8.0 13.0 0.00 0.00 0.00 76 1013.6
20260506081600 51 152 11.0 20.0 0.00 0.00 0.00 73 1013.8
20260506073058 46 149 2.0 4.0 0.00 0.00 0.00 63 1012.3
20260506071558 45 91 1.0 4.0 0.00 0.00 0.00 60 1011.6
20260506061602 45 86 1.0 2.0 0.00 0.00 0.00 60 1011.2
20260506050104 52 187 0.0 3.0 0.00 0.00 0.00 53 1010.9
20260506044639 54 187 2.0 3.0 0.00 0.00 0.00 52 1010.9
20260506043059 54 188 3.0 5.0 0.00 0.00 0.00 51 1010.9
20260506041601 54 183 3.0 4.0 0.00 0.00 0.00 50 1010.8
20260506040059 56 150 3.0 5.0 0.00 0.00 0.00 48 1010.7
20260506034559 56 129 3.0 5.0 0.00 0.00 0.00 47 1010.6
20260506033059 56 111 1.0 7.0 0.00 0.00 0.00 44 1010.6
20260506031600 58 0 0.0 0.0 0.00 0.00 0.00 44 1010.1
20260506030059 58 0 0.0 1.0 0.00 0.00 0.00 44 1010.0